Location: Molveno
(46.1500°N, 10.9667°E)
Time: 17:06:18
(UTC+00:00)

Cosmos 44 - Pass Details

Date: 05 July 2020
Orbit: 586 x 775 km, 65.1° (Epoch: 10 August)

Event Time Altitude Azimuth Distance (km) Brightness Sun altitude
Exits shadow 23:43:39 21° 259° (W) 1,353 4.6 -21.0°
Maximum altitude 23:46:00 37° 315° (NW) 936 4.2 -21.0°
Drops below altitude 10° 23:50:10 10° 23° (NNE) 1,984 6.7 -20.9°
Sets 23:52:37 0° 32° (NNE) 2,921 7.7 -20.8°
